Theta_e
329 331 331 330 330 330 331 330 328 328 326 325 321 317 315 321 330 332 333 335 335 334 335 330 320 326 331 330 332 332 333 335 335 334 333 333 332 331 329 327 326 325 325 325 327 328 328 330 331 332 332 333 333 334 334 334 334 332 330 324 319 323
330 333 334 333 332 331 333 333 332 330 327 326 323 321 318 318 327 332 333 333 335 333 333 330 321 325 331 330 332 333 333 334 334 334 333 333 332 331 330 328 327 326 326 326 327 327 328 329 331 332 332 333 334 335 334 334 333 331 330 326 320 324
327 331 332 331 332 333 333 333 333 333 329 326 323 323 322 318 322 330 333 333 334 333 332 331 324 324 329 330 331 333 334 334 334 334 334 334 333 332 331 329 328 327 327 327 327 327 328 328 330 332 333 334 335 335 335 333 332 330 329 327 321 324
320 323 325 326 328 331 331 330 330 332 331 328 323 323 324 322 321 326 332 333 332 332 332 332 328 324 326 328 330 332 334 334 334 334 334 334 332 332 331 330 328 327 327 327 327 327 327 329 331 333 333 334 335 334 334 332 331 330 329 326 323 325
319 320 321 322 325 327 328 328 329 331 332 330 326 325 327 326 323 323 329 332 330 331 332 332 330 327 327 327 328 331 333 334 334 334 334 334 333 332 331 330 329 327 327 327 327 328 328 330 331 333 334 334 335 334 334 332 331 330 328 325 323 326
320 320 321 320 321 323 325 328 329 331 332 332 331 330 331 329 326 324 328 332 331 331 332 331 330 328 328 326 325 329 332 334 334 334 334 333 333 332 332 331 329 328 328 328 328 329 330 331 332 333 334 335 334 334 333 332 331 330 326 323 324 326
315 316 317 318 318 319 321 325 328 331 332 334 334 334 334 332 329 326 325 329 331 332 332 332 331 329 327 325 323 325 329 333 334 334 334 333 333 332 332 331 329 329 329 329 330 330 331 332 333 334 334 334 334 333 333 331 330 326 323 322 325 328
311 311 313 314 316 318 319 321 326 329 331 332 334 335 335 334 332 329 325 326 329 332 332 332 333 333 331 328 325 324 326 330 333 334 334 334 333 333 332 331 330 330 330 331 331 332 332 332 333 334 335 334 334 333 332 330 325 319 319 323 327 329
310 309 310 310 312 315 317 319 322 325 328 331 331 332 333 334 334 332 329 326 327 331 332 333 333 334 334 332 329 327 326 327 331 333 334 334 333 333 333 332 332 331 330 331 332 332 332 333 333 333 334 334 334 334 333 330 321 313 316 322 326 329
310 309 309 308 309 310 313 317 320 322 325 328 330 330 331 332 333 334 333 331 329 330 331 332 333 333 333 334 332 329 327 326 329 332 334 334 334 333 332 332 332 332 332 332 332 333 333 333 332 332 334 334 335 334 334 330 319 312 315 319 324 328
311 310 309 308 308 308 309 312 316 320 322 325 328 330 331 331 331 332 333 333 332 331 331 331 332 332 332 333 333 331 329 327 328 331 333 333 334 333 333 331 332 332 333 333 333 334 334 334 332 332 333 334 335 334 334 331 318 312 316 316 321 326
312 311 310 309 308 308 308 309 312 317 320 323 325 327 330 331 331 331 331 332 333 332 332 332 332 332 331 332 333 333 331 328 327 329 331 333 333 333 333 332 331 332 334 334 334 334 335 334 333 333 334 333 334 334 335 331 318 313 317 315 319 325
313 312 311 311 310 308 307 308 310 313 317 321 323 325 327 330 331 331 331 331 332 332 331 332 333 332 331 331 332 332 332 330 328 327 329 332 332 332 333 333 332 331 333 335 335 334 334 334 334 334 334 333 333 334 335 331 319 313 317 317 318 323
313 313 312 312 311 310 308 307 308 311 315 319 321 322 324 327 329 330 331 331 331 331 331 332 334 333 332 332 331 332 332 332 332 330 329 331 332 332 333 333 332 331 332 334 334 334 333 333 334 334 334 333 333 334 334 332 321 313 317 319 319 323
313 313 313 312 311 310 309 308 307 309 312 317 320 321 322 324 327 328 330 331 331 331 331 332 333 333 333 332 332 332 331 332 333 333 332 332 332 333 332 333 332 332 332 333 334 334 333 333 333 334 334 333 333 334 334 331 323 315 316 319 320 321
313 313 313 312 312 311 309 308 307 307 310 314 318 320 321 322 324 325 327 329 330 330 331 331 332 332 333 333 332 332 331 332 332 333 334 333 333 333 333 332 332 332 332 331 333 333 333 332 333 334 334 333 333 333 333 330 324 319 318 319 320 321
313 313 313 313 312 311 310 308 307 307 310 314 318 319 321 322 322 323 324 327 329 330 330 330 330 331 331 332 332 332 331 332 332 333 333 333 333 332 332 332 331 332 333 331 332 333 332 331 333 334 334 333 333 333 333 331 326 322 320 321 320 321
314 313 313 313 312 311 310 308 307 308 311 316 319 320 321 322 322 322 322 325 327 329 329 329 330 330 330 331 331 332 332 332 332 332 333 332 332 332 332 332 332 333 333 333 333 332 332 331 332 334 334 333 333 333 334 332 329 326 323 323 322 321
313 313 313 312 311 310 309 308 307 308 312 316 319 321 321 322 322 322 322 323 325 327 328 329 330 330 330 330 330 331 332 333 333 332 332 332 332 332 331 331 332 333 333 333 333 332 331 332 333 334 333 333 333 333 333 333 332 330 326 325 325 323
313 313 312 311 310 309 309 307 306 307 312 316 318 320 321 322 322 322 321 321 321 324 326 328 330 330 330 330 330 330 331 332 333 332 332 332 333 332 331 331 332 333 333 333 333 332 331 332 333 334 333 333 334 333 333 333 333 332 329 327 327 326
313 312 311 310 310 309 307 307 306 306 310 314 317 319 320 321 321 320 320 320 320 321 324 326 328 329 330 330 331 331 331 331 332 333 332 332 332 332 332 332 332 332 333 333 333 333 331 332 333 334 333 333 334 333 333 334 334 334 332 330 329 328
312 311 310 310 309 308 307 306 307 307 308 311 315 317 318 319 320 320 320 320 320 320 321 324 326 328 329 329 330 331 331 331 332 332 332 332 332 332 331 332 331 331 332 333 333 333 332 332 332 333 333 333 333 333 332 333 334 334 333 332 332 330
312 311 310 309 309 308 306 307 308 309 308 309 312 315 317 318 319 319 320 320 319 320 320 322 324 326 327 328 328 329 330 331 331 332 332 333 332 331 331 331 331 329 331 333 333 333 333 331 331 332 334 333 332 332 332 333 333 334 334 333 333 332
311 310 309 309 309 307 307 307 308 309 309 310 311 313 315 316 317 318 318 319 319 319 320 320 321 323 325 326 327 327 328 330 331 331 332 332 332 332 330 331 330 329 330 332 333 333 332 332 331 331 333 333 332 332 333 332 332 333 333 333 333 333
311 310 309 309 309 308 307 307 307 308 309 310 311 312 313 314 315 316 317 317 317 318 319 319 319 320 321 323 325 326 326 327 329 330 331 332 332 332 331 331 330 329 329 331 332 333 332 332 331 331 332 333 333 332 332 332 332 333 333 333 332 332
311 310 309 309 309 308 308 307 307 307 308 309 310 311 313 314 314 315 315 315 316 318 319 319 319 320 320 321 322 324 325 326 327 328 330 331 332 332 332 332 331 329 328 329 332 333 333 332 331 332 333 333 333 332 331 331 331 332 332 332 332 332
311 310 309 309 308 308 308 308 307 306 307 309 309 310 311 313 314 315 315 315 316 318 319 320 319 319 319 320 322 323 324 325 325 326 327 329 330 332 332 333 332 331 328 328 331 333 333 332 332 332 333 333 333 332 330 330 330 330 331 331 331 331
311 310 309 309 309 308 308 307 307 307 307 309 309 310 310 311 313 313 314 314 315 317 319 319 319 319 319 319 320 322 323 324 324 325 326 327 328 330 332 333 333 332 329 328 331 332 332 332 331 331 332 332 333 332 331 330 329 329 330 331 331 331
310 310 309 309 308 308 308 307 307 307 307 308 309 310 310 311 311 312 312 313 314 315 317 318 319 321 321 320 321 323 323 324 325 326 326 327 327 329 331 332 333 332 330 329 330 331 332 332 332 331 331 332 333 333 332 331 329 328 329 330 331 331
310 310 309 309 308 308 308 307 307 307 308 308 309 309 310 310 310 311 311 312 313 314 316 317 319 321 323 324 327 327 325 325 327 327 327 328 327 328 330 332 333 332 331 329 329 330 331 331 332 331 332 332 332 332 331 331 329 328 328 330 330 330
310 310 309 308 308 308 307 307 307 307 308 309 309 309 309 309 310 310 310 310 311 313 315 317 319 321 323 325 328 329 327 328 328 328 328 329 329 328 329 331 333 332 331 330 329 330 329 330 331 331 331 332 332 331 330 330 329 327 328 329 329 329
310 309 309 308 308 308 307 307 307 307 308 308 309 309 309 310 310 310 310 310 311 313 315 317 319 320 322 324 327 328 328 328 328 328 329 330 330 329 329 330 332 332 332 331 330 330 328 328 329 330 331 331 331 330 329 330 329 326 326 329 329 329
310 309 309 308 308 308 307 307 307 307 308 308 309 309 309 309 310 310 310 310 311 313 314 316 318 320 321 322 324 326 327 326 325 326 327 328 329 329 329 329 331 332 331 331 331 329 328 327 327 328 329 330 330 330 330 330 329 326 326 329 330 330
310 309 309 308 308 308 307 307 307 307 308 309 309 309 310 310 310 311 311 310 311 312 313 315 317 319 320 321 322 324 326 326 325 325 327 328 328 329 329 330 331 331 331 330 330 329 328 327 327 327 328 329 329 329 329 330 329 326 327 329 330 330
310 309 308 308 308 308 307 307 307 307 308 309 309 309 310 310 310 311 311 311 311 311 312 314 315 317 318 319 320 321 323 325 325 326 327 328 328 329 329 330 331 331 331 330 330 330 329 327 326 327 328 329 330 330 331 331 329 327 327 330 330 329
309 309 308 308 308 308 307 307 307 307 308 309 309 310 310 310 311 311 312 312 312 311 311 313 314 315 317 317 318 319 320 322 325 326 327 328 328 329 329 329 330 331 331 331 331 331 329 328 327 327 329 330 331 331 332 332 330 328 329 331 332 331
309 309 308 308 308 307 307 307 307 307 307 308 309 309 310 311 312 313 313 313 313 312 311 312 313 314 315 316 317 318 319 320 323 325 327 327 328 328 328 328 329 330 331 331 331 331 330 329 328 328 330 331 332 332 332 331 331 330 330 332 333 331
Wind_Speed
6 5 4 4 6 9 10 10 9 10 9 7 6 4 2 3 4 3 2 2 1 2 1 1 5 8 7 6 5 5 5 5 5 5 4 5 7 6 6 5 5 7 8 9 9 8 6 5 4 3 2 1 1 2 3 3 3 5 5 2 3 4
10 10 9 9 10 11 12 11 10 10 9 8 6 4 3 3 5 4 3 2 3 2 1 1 5 7 7 6 5 5 5 5 5 5 5 4 6 6 5 5 5 6 7 8 8 7 6 5 5 4 3 2 2 1 2 3 3 4 4 3 4 4
10 11 11 11 11 12 12 12 10 10 9 9 7 5 3 3 6 6 4 4 4 4 3 2 6 8 7 6 5 5 4 4 4 4 4 5 6 6 5 5 5 5 6 7 7 7 6 5 5 4 3 3 2 1 2 2 3 4 4 2 5 5
8 9 9 10 10 10 10 11 11 11 10 10 9 7 5 4 6 7 6 5 5 4 4 3 5 8 9 8 7 5 4 3 4 3 3 5 6 5 5 5 4 4 5 6 7 7 6 6 5 4 4 3 2 1 2 2 3 3 4 1 6 6
7 8 8 9 9 8 8 8 10 10 11 11 10 9 7 6 6 8 8 7 6 5 5 5 5 8 10 10 9 6 4 4 4 4 4 5 6 6 5 5 5 4 5 7 7 7 7 6 5 4 4 4 2 1 2 3 3 4 4 3 8 7
8 8 9 9 8 8 7 6 7 8 10 10 10 10 9 8 7 9 10 9 7 7 7 6 6 7 9 11 11 8 5 4 4 5 5 5 6 6 6 6 6 5 6 7 7 7 6 5 4 4 4 4 2 1 2 4 4 5 3 6 10 8
10 9 9 10 9 9 7 7 6 7 8 8 10 11 11 10 9 9 11 11 9 8 8 7 7 7 7 10 11 10 7 6 5 6 6 6 6 6 6 7 7 7 7 7 7 7 7 6 5 4 4 4 3 2 3 4 5 5 1 10 10 9
12 12 11 11 11 10 10 9 7 7 7 8 10 11 12 13 12 10 10 11 11 10 9 8 8 7 7 7 10 11 10 8 7 7 7 7 7 7 6 7 8 8 8 6 7 8 7 5 5 5 4 4 3 2 2 4 5 3 6 12 10 9
13 13 13 12 11 11 11 11 10 8 8 8 10 11 12 14 15 13 11 12 12 11 11 9 9 9 8 8 8 10 11 10 9 8 9 8 7 7 7 8 9 9 8 7 7 7 7 6 5 5 5 4 2 2 2 4 4 1 8 12 9 9
13 13 14 14 14 13 12 12 12 11 10 10 10 11 12 13 15 15 14 13 13 13 12 11 10 10 9 9 9 10 10 10 11 10 10 10 8 7 7 7 8 9 8 7 7 6 7 7 7 6 5 3 2 2 2 4 3 3 8 11 10 9
13 14 14 15 15 14 13 13 13 13 12 12 12 11 12 13 14 15 16 15 14 14 14 13 12 11 11 10 9 10 10 10 12 12 12 12 11 9 8 8 8 9 7 6 7 6 6 7 7 7 6 3 2 2 2 4 2 5 6 9 11 9
13 14 15 16 15 14 14 13 13 13 13 13 13 13 12 13 14 15 16 15 15 16 16 15 14 13 13 12 11 11 11 11 12 14 13 13 13 11 10 10 11 11 9 7 7 6 5 6 7 6 6 3 2 3 2 3 0 6 6 8 11 10
16 16 17 18 18 17 15 14 14 14 14 14 14 14 13 13 13 14 15 15 15 15 17 17 14 13 14 14 13 13 13 12 12 14 14 14 15 14 13 12 12 12 11 8 8 6 4 5 6 5 6 5 4 3 3 2 1 6 7 7 11 10
19 20 20 20 20 20 18 16 15 14 14 14 14 14 14 14 13 14 14 15 14 14 15 16 14 14 14 14 14 15 14 13 12 13 14 15 16 16 15 15 13 12 12 10 7 6 5 5 5 5 6 6 4 4 4 3 2 6 7 7 10 11
20 22 23 23 23 23 22 19 16 14 14 14 14 15 15 14 14 14 14 15 15 14 15 15 15 15 15 15 15 16 15 14 14 14 14 15 15 16 17 17 15 14 13 13 8 6 6 5 5 5 5 5 4 4 5 4 3 6 7 7 9 10
21 23 25 26 26 26 25 21 17 14 13 13 13 14 14 15 14 13 13 14 14 14 15 15 15 15 16 16 16 16 15 15 16 16 15 14 13 14 16 16 16 15 14 15 11 7 6 6 6 6 4 4 4 5 6 6 4 6 7 7 8 10
22 24 26 28 29 29 27 23 17 12 11 12 12 12 13 14 14 13 13 13 13 13 14 14 15 15 16 17 17 16 14 15 17 17 16 15 13 14 15 16 17 15 14 16 12 8 7 6 6 6 5 4 5 6 6 6 6 6 7 7 8 9
24 25 28 30 31 31 28 23 17 10 9 9 10 11 12 13 14 13 12 11 11 11 12 13 14 15 15 16 17 16 15 16 16 17 17 16 16 15 15 17 18 16 13 15 12 8 7 7 7 7 6 5 5 7 8 8 7 6 7 8 8 8
25 27 29 31 32 32 29 22 14 9 8 8 8 9 10 11 12 12 11 11 12 11 10 11 12 14 15 15 16 16 17 17 16 17 18 17 18 17 16 17 18 16 14 14 11 9 8 8 8 8 8 7 6 7 9 9 8 6 6 7 8 9
26 28 30 32 33 33 30 22 14 6 7 8 8 8 9 9 11 12 12 13 12 10 9 9 10 12 14 15 15 15 16 17 17 18 19 19 19 18 17 17 17 15 15 15 13 11 10 10 10 10 10 9 8 8 9 10 9 7 7 8 8 8
26 29 31 33 33 32 29 24 17 8 5 7 7 8 9 9 10 11 12 12 11 10 9 9 9 10 12 14 15 14 15 16 17 18 20 20 20 19 18 18 17 14 15 17 17 14 12 11 11 12 12 11 10 10 9 10 11 10 9 9 9 9
26 28 30 32 32 31 28 24 19 13 7 5 7 8 8 9 9 9 10 11 12 10 10 10 10 10 11 13 13 13 14 14 16 18 20 20 21 21 20 19 18 16 15 18 18 15 13 13 13 14 14 13 12 11 10 11 12 13 12 11 11 11
25 27 29 31 31 29 27 23 19 16 12 8 7 8 8 8 8 8 9 11 12 11 11 12 13 12 12 12 13 12 13 14 15 17 19 21 22 23 23 22 20 18 17 18 18 16 15 16 15 14 14 13 12 12 12 13 15 15 15 14 13 12
24 26 27 29 30 29 26 23 19 16 13 11 9 10 10 10 10 11 11 11 12 12 13 14 15 16 15 15 14 13 12 13 15 18 19 21 23 24 25 24 23 21 20 19 19 18 17 17 17 16 15 13 11 11 13 15 16 18 17 16 14 14
23 25 26 28 29 29 27 24 22 18 13 10 10 11 11 11 11 12 12 12 12 13 13 14 15 17 18 18 17 16 14 14 15 17 19 21 22 24 26 26 25 24 24 22 19 19 19 19 19 18 17 15 11 11 15 15 15 17 18 17 15 15
23 24 26 27 27 28 28 27 24 21 17 12 9 9 10 9 8 8 10 10 10 12 12 13 14 16 17 19 19 18 16 16 16 17 19 21 22 23 26 28 27 27 26 23 20 20 20 20 20 20 20 19 15 12 14 14 14 15 16 17 15 15
22 24 26 26 27 27 27 27 25 21 18 15 12 10 9 9 8 8 8 8 8 10 11 12 13 15 16 18 19 18 17 18 18 18 18 20 22 24 27 28 28 28 27 25 23 23 22 21 22 21 21 21 20 16 13 12 13 12 13 16 16 15
22 24 24 25 26 26 26 26 24 20 16 14 13 11 10 10 11 10 10 9 8 9 10 11 13 14 15 16 16 16 16 17 19 20 20 21 23 24 26 28 29 29 29 27 25 24 23 22 22 21 21 22 22 20 16 14 12 11 11 12 14 15
21 22 23 24 24 25 26 25 22 20 16 13 12 12 11 11 12 12 12 11 9 9 11 11 11 12 12 12 12 12 14 14 16 19 19 20 23 25 26 28 29 30 30 30 27 24 24 24 22 20 20 23 23 22 20 17 14 13 12 11 11 12
20 21 22 22 23 23 24 24 21 18 16 14 13 12 12 11 12 12 12 12 10 9 10 9 10 10 10 9 7 8 10 11 12 14 16 17 21 24 27 28 29 30 31 30 29 26 25 25 23 20 20 22 24 24 23 20 18 16 14 13 12 10
18 20 21 21 22 22 24 24 20 18 16 14 14 14 13 12 12 11 10 10 9 8 7 8 9 10 9 6 5 8 10 11 11 12 15 16 17 21 24 27 29 30 31 31 30 28 26 25 24 22 21 22 23 23 22 20 20 18 15 14 13 11
17 19 20 20 21 22 24 24 20 17 15 14 13 14 14 13 13 11 10 8 7 8 7 7 9 9 9 8 4 6 9 11 12 13 16 18 18 19 21 24 27 28 31 32 30 28 26 24 25 24 24 24 23 22 22 20 19 18 14 12 11 9
17 18 19 19 21 22 23 23 21 17 14 13 13 13 13 13 13 12 11 8 7 7 7 8 9 9 8 9 7 4 7 10 11 13 16 19 20 22 22 23 25 26 29 31 30 29 26 23 23 23 24 25 25 24 23 21 20 18 15 13 11 9
17 18 18 19 20 21 23 23 21 17 14 13 12 12 13 13 12 12 12 10 9 8 8 10 10 9 8 9 8 7 7 10 12 11 12 16 19 20 21 24 24 24 26 31 32 31 28 24 23 23 23 25 26 26 23 21 22 21 18 16 15 12
17 17 18 19 20 21 22 22 21 18 14 12 11 12 12 12 12 11 12 11 10 8 9 10 10 11 10 10 10 9 8 10 10 9 8 13 16 15 14 18 22 23 24 29 33 31 28 26 25 23 24 25 25 25 24 23 24 24 22 20 17 13
16 16 17 18 20 21 21 21 21 19 16 12 11 12 12 11 11 11 11 12 10 8 9 11 12 12 12 11 12 12 11 10 9 8 7 9 12 12 10 11 15 21 24 28 31 31 30 28 27 25 25 25 25 25 25 25 26 25 24 21 16 14
16 16 16 17 19 20 21 21 19 18 17 13 11 12 11 11 11 10 10 11 11 9 8 10 13 14 13 13 13 14 13 12 11 9 7 8 10 11 10 10 11 17 24 28 29 30 31 29 28 27 26 26 26 25 26 27 26 24 23 21 17 17
Wind_Direction
333 336 321 300 297 303 313 314 311 307 309 331 343 334 296 187 187 200 167 181 186 144 115 130 161 170 175 186 199 196 189 183 188 191 180 150 132 121 116 120 138 155 169 180 194 210 219 224 232 251 270 311 343 25 42 80 72 50 51 100 148 156
314 317 314 308 306 301 305 309 307 298 293 304 313 318 305 228 208 213 205 204 218 203 198 150 168 183 185 191 209 200 189 181 193 204 189 175 155 136 126 120 130 153 169 182 196 213 223 227 235 251 261 287 301 354 40 70 66 45 44 103 161 168
310 311 312 311 308 301 302 304 302 295 284 284 289 293 302 268 226 219 220 217 219 212 208 187 180 192 194 202 220 213 204 184 190 210 191 186 172 148 142 131 129 149 170 186 197 213 225 230 237 249 261 281 295 352 40 45 42 29 23 98 173 177
321 313 310 312 313 310 307 304 301 297 287 279 280 283 292 287 247 230 230 228 224 220 215 202 190 197 199 209 224 223 224 197 180 198 191 183 174 160 153 140 135 149 170 188 199 213 222 230 237 247 272 290 301 2 23 7 15 6 358 116 177 182
330 323 318 317 318 318 313 305 300 297 291 282 278 282 285 283 260 238 231 232 229 226 223 216 212 211 208 210 219 224 222 202 186 190 188 180 172 162 156 155 151 153 172 188 198 209 216 226 237 253 280 293 305 353 357 348 353 343 340 165 175 184
332 327 323 323 321 316 310 300 295 294 291 284 278 278 278 274 263 243 230 228 227 227 225 222 226 226 221 214 215 224 221 205 201 195 186 180 172 160 161 166 161 166 183 191 197 207 216 227 241 261 281 287 293 308 324 336 337 330 325 166 174 183
339 334 328 328 327 323 317 306 294 290 289 283 274 270 272 270 264 248 233 230 227 228 228 223 225 230 230 221 216 220 220 214 211 199 186 179 173 166 168 172 170 180 188 193 203 215 222 231 244 260 272 271 282 289 306 326 333 326 188 162 175 181
341 337 333 328 324 320 316 312 302 289 281 276 271 268 269 268 265 252 235 233 232 232 233 229 229 232 236 232 224 221 217 216 215 204 190 183 177 173 175 176 182 191 190 192 207 223 231 238 256 266 263 253 271 290 308 328 336 324 160 158 174 178
339 335 332 327 322 316 310 308 304 296 282 272 270 269 267 265 266 261 245 235 235 236 237 236 236 238 239 236 232 228 221 214 212 211 200 193 184 179 181 182 193 201 196 198 208 225 237 245 264 270 260 245 264 287 313 335 345 128 155 155 172 178
340 335 331 327 323 318 311 305 301 298 289 279 273 270 268 265 264 266 260 248 240 239 241 241 239 239 240 236 231 229 226 215 208 210 207 202 193 188 188 188 204 210 201 206 214 223 239 253 269 268 261 249 262 283 308 335 355 140 153 157 171 179
349 345 340 333 327 321 314 306 300 295 291 286 281 274 270 266 262 263 266 263 256 249 245 244 242 238 238 237 232 227 225 218 209 207 209 209 205 197 195 196 206 209 205 214 221 226 243 261 271 263 262 256 235 266 292 329 357 147 152 159 171 181
5 359 352 344 336 326 317 307 300 293 290 286 282 278 272 268 264 260 263 267 266 260 254 250 245 240 239 238 233 229 223 218 215 210 210 215 215 206 200 205 206 200 197 213 229 231 240 263 273 263 261 254 215 242 265 312 324 152 151 160 172 181
15 11 5 358 350 340 327 312 300 292 289 286 282 279 273 269 266 261 260 262 265 265 260 257 251 241 240 240 234 230 225 217 217 216 214 217 220 215 207 213 216 207 198 209 235 242 248 267 275 263 251 242 222 238 248 275 198 157 153 160 174 183
14 14 12 9 2 353 342 326 309 294 287 285 283 280 275 270 267 264 261 261 262 263 260 257 255 246 240 240 236 234 231 222 217 218 220 220 221 220 215 215 220 220 213 216 232 245 259 277 283 271 246 233 227 230 225 226 183 162 158 159 174 186
11 9 9 9 7 1 352 340 323 302 288 284 283 282 278 274 269 266 264 262 263 263 262 258 255 251 245 243 239 236 235 230 222 220 223 222 222 225 222 218 219 223 225 228 231 235 250 271 289 284 255 234 226 221 212 208 190 167 163 162 172 186
8 7 5 5 5 3 355 346 334 311 291 283 282 282 281 279 274 270 265 261 261 262 265 262 258 256 253 251 247 242 238 234 229 224 222 220 218 226 228 225 222 225 230 234 236 235 242 262 281 282 264 237 212 207 210 203 194 173 165 164 169 183
8 5 3 2 1 1 357 348 339 317 292 283 282 281 282 281 278 275 271 265 261 260 263 264 262 261 258 255 252 248 240 236 233 229 226 222 214 219 228 229 225 224 232 236 235 232 237 251 266 266 259 241 203 197 206 202 199 181 165 164 166 175
7 5 3 1 358 357 357 351 340 319 290 280 282 283 280 282 283 280 275 268 262 259 261 262 262 262 262 259 255 251 243 238 237 233 230 227 220 217 223 228 223 217 227 236 231 228 237 248 255 255 250 238 211 199 200 200 203 193 173 167 165 168
6 5 3 360 357 355 356 354 342 314 282 270 274 280 280 281 282 281 276 273 268 261 260 263 261 259 261 261 258 255 248 243 241 238 235 229 225 222 220 223 220 214 223 232 229 225 233 243 243 247 246 234 220 203 195 197 201 201 189 176 170 170
5 4 1 359 358 355 354 355 349 314 267 261 262 270 278 280 278 279 280 279 275 265 261 263 262 257 257 259 259 256 251 245 240 240 239 234 229 226 222 222 220 217 225 228 226 221 223 233 237 241 242 235 226 212 198 199 203 202 201 192 185 181
3 2 1 359 359 357 354 353 353 340 270 258 263 266 268 273 279 282 281 282 280 271 262 259 261 258 254 257 258 254 251 246 239 237 239 237 232 228 224 224 222 222 229 229 226 222 218 225 231 233 233 229 225 222 212 209 210 209 208 205 203 196
2 1 1 0 360 359 356 353 349 343 322 276 271 273 270 272 279 287 287 285 284 280 270 260 259 258 254 256 258 254 248 245 241 237 235 234 232 229 225 224 223 223 228 229 227 226 223 227 231 231 232 227 218 220 222 220 219 215 214 212 210 208
0 0 0 2 2 0 358 356 349 339 330 311 285 274 274 277 281 289 293 289 288 287 279 267 261 258 255 255 258 256 250 243 240 239 235 231 230 230 228 225 224 225 227 227 224 224 226 232 237 231 226 226 220 216 218 223 223 219 215 213 212 213
0 1 0 2 4 3 360 357 353 344 327 313 296 277 269 270 274 281 285 288 289 288 285 279 271 265 260 257 258 258 252 244 239 237 237 234 230 229 230 227 223 225 228 226 223 223 224 229 234 228 216 217 218 214 217 222 222 220 216 213 213 216
358 360 360 1 3 4 2 358 355 352 338 308 287 283 280 274 273 278 280 282 286 290 289 285 279 273 266 261 260 259 255 248 241 237 237 236 232 230 232 230 224 224 228 227 225 224 224 226 231 230 224 221 214 213 223 222 217 221 220 214 214 218
355 357 357 359 2 2 1 358 354 353 350 334 303 293 298 296 290 290 290 288 293 300 299 293 285 278 270 263 260 259 256 250 245 240 238 237 234 231 231 230 225 225 229 229 226 224 223 226 229 227 225 227 227 229 233 222 212 219 221 216 216 220
352 353 354 356 359 360 358 356 353 351 350 343 327 310 303 300 297 296 294 296 308 312 309 306 299 287 278 267 259 257 255 251 248 243 239 237 235 231 229 230 227 223 226 227 224 223 222 225 229 227 225 227 229 233 238 226 216 221 221 216 216 219
349 349 351 353 357 357 355 353 350 348 346 340 330 318 307 296 291 287 282 282 296 307 310 317 316 305 291 275 263 259 255 250 249 245 241 237 235 232 229 229 228 222 222 224 223 224 224 224 228 230 229 228 226 228 233 233 229 231 227 214 210 216
345 346 347 351 354 354 353 351 348 345 342 337 328 317 308 300 293 288 282 274 273 292 306 312 318 317 305 289 272 262 261 256 248 244 240 237 236 233 228 228 228 222 219 221 221 222 225 225 228 232 233 232 229 226 228 231 233 231 227 214 203 210
341 343 344 348 351 351 351 350 347 343 339 334 328 318 308 300 295 292 288 277 265 281 303 305 311 318 310 292 257 244 263 265 253 244 241 242 240 236 229 226 228 223 218 220 219 219 223 225 227 231 236 236 233 228 226 229 232 228 222 218 209 203
336 339 340 344 347 348 351 351 347 342 337 331 326 325 321 313 308 303 299 287 264 265 293 303 309 319 323 311 243 229 253 256 248 242 241 244 246 245 237 228 228 224 217 218 219 217 221 223 225 228 232 235 234 234 234 238 238 231 222 217 213 204
332 334 337 341 343 346 351 352 347 340 335 329 324 327 328 327 325 316 308 300 263 250 273 295 308 319 335 340 296 240 252 253 245 238 239 241 240 246 244 234 233 229 217 215 216 216 219 221 223 225 228 232 234 237 242 247 246 236 226 219 214 209
326 329 333 337 340 345 350 352 349 340 333 332 327 326 326 327 332 326 316 303 269 250 256 277 304 321 335 344 341 307 280 273 262 244 241 242 239 242 242 236 238 235 222 215 214 214 217 220 224 227 230 234 237 239 242 244 241 233 227 222 218 217
321 325 330 335 339 345 350 352 352 343 333 331 329 329 327 325 330 332 326 312 288 264 255 271 298 315 322 334 343 338 311 291 282 265 249 243 241 244 242 238 238 235 225 218 214 213 216 219 224 229 233 236 238 240 240 236 231 226 224 225 225 226
316 322 328 333 339 345 349 352 354 349 336 328 328 331 330 326 328 330 329 324 307 275 254 264 286 303 313 324 333 339 333 312 294 282 263 243 237 242 245 241 238 232 224 218 214 213 215 217 222 227 233 237 239 239 234 227 224 225 225 226 230 234
311 318 326 333 340 345 349 351 354 353 343 334 331 331 331 332 332 330 328 328 323 295 259 255 271 292 307 315 324 331 336 329 306 284 268 245 233 232 239 243 238 229 223 218 214 213 215 218 221 224 230 236 239 237 231 224 223 227 229 228 232 240
308 316 323 331 340 344 347 350 353 352 345 339 333 329 331 335 335 335 335 333 333 319 284 259 260 276 294 304 313 318 323 331 323 299 277 254 238 232 235 246 246 234 225 219 216 215 216 218 221 225 229 233 235 234 231 228 226 228 232 233 238 246